Location: ?????? ??????
(44.3742°N, 135.2221°E)
Time: 10:30:03
(UTC+00:00)

Meteor 1-27 Rocket - Pass Details

Date: 19 May 2025
Orbit: 829 x 908 km, 81.3° (Epoch: 13 June)

Event Time Altitude Azimuth Distance (km) Brightness Sun altitude
Exits shadow 13:59:00 60° 195° (SSW) 970 3.7 -24.4°
Maximum altitude 14:00:07 87° 278° (W) 852 3.6 -24.5°
Drops below altitude 10° 14:05:42 10° 10° (N) 2,457 7.0 -24.7°
Sets 14:08:06 0° 11° (N) 3,390 7.9 -24.8°
